sat.trackr.live / text

‹ back to catalog

SUPERVIEW NEO-1 03

NORAD 63125 · 2025-040A

PAYLOAD ACTIVE UNKNOWN

§ Identity

Operator
Country
PRC
Launch date
2025-02-27
Launch site
JSC
Launch vehicle
Mass (kg)
RCS (m²)

External: N2YO · Heavens-Above · Gunter

§ Orbital elements

Epoch: 2026-09-22T20:35:35.514816Z

Period
94.64 min
Inclination
97.3572°
Eccentricity
0.0001113
Mean motion
15.21605681 rev/d
Perigee alt
500.2 km
Apogee alt
501.8 km
Semi-major
6,879.1 km
B*
3.0212e-4
RAAN
18.0361°
Arg perigee
125.5638°
Mean anomaly
234.5702°
Rev number
8,703

§ Raw data

SUPERVIEW NEO-1 031 63125U 25040A   26265.85804994  .00006752  00000+0  30212-3 0  99962 63125  97.3572  18.0361 0001113 125.5638 234.5702 15.21605681 87033

JSON: /api/v1/satellites/63125 · /tle

For live sub-satellite position, see the globe view (requires WebGL).

§ Visibility from observer

Set your observer location to see the next 7 days of passes ≥ 10°. The values pass through the URL so the page stays shareable.

No JS? Fill the form by hand. The geolocation button needs JavaScript.